Location: Penticton
(49.5000°N, 119.5830°W)
Time: 15:43:10
(UTC-07:00)

Daily predictions for brighter satellites

Satellite Brightness Start Highest point End
(mag) Time Altitude Azimuth Time Altitude Azimuth Time Altitude Azimuth
ARGOS 4.1 20:34:15 10° ESE 20:38:55 32° ENE 20:43:36 10° N
Cosmos 2056 Rocket 4.3 20:34:19 10° SSE 20:39:05 33° ESE 20:43:51 10° NE
Cosmos 1140 Rocket 4.4 20:38:41 10° N 20:43:26 35° NE 20:48:07 10° ESE
SL-16 R/B 3.0 20:43:21 10° SSE 20:48:10 30° ESE 20:53:01 10° NE
Cosmos 405 3.5 20:46:41 10° N 20:50:03 40° ENE 20:53:22 10° SE
Cosmos 1190 Rocket 4.1 20:47:01 10° NNW 20:52:20 71° ENE 20:57:34 10° SSE
YAOGAN 6 3.3 20:49:18 10° S 20:52:52 58° W 20:56:32 10° NNW
ERS-2 3.4 20:49:30 10° S 20:52:59 41° W 20:56:30 10° NNW
Cosmos 1624 Rocket 4.3 20:50:25 10° S 20:55:20 45° ESE 21:00:16 10° NE
ATLAS 2AS CENTAUR R/B 4.1 20:48:33 10° NW 20:55:48 41° WSW 21:02:32 10° S
NOSS 0 Rocket 4.0 20:50:35 10° SSW 20:56:47 86° ESE 21:03:02 10° NNE
Resurs 01 Rocket 1.9 20:53:12 10° S 20:57:38 71° WSW 21:02:05 10° NNW
Cosmos 1151 Rocket 3.0 20:54:14 10° S 20:58:30 86° E 21:02:49 10° N
Cosmos 2098 Rocket 3.1 20:55:28 10° SSE 20:59:24 42° E 21:02:39 10° NNE
SJ-11-01 4.5 20:56:47 10° S 21:01:28 77° WSW 21:06:10 10° NNW
Cosmos 1954 Rocket 4.4 20:58:30 10° NNW 21:03:35 49° ENE 21:08:09 12° SE
Cosmos 1933 Rocket 4.1 21:00:01 10° NNW 21:04:22 62° W 21:08:39 10° S
Spot 2 Rocket 3.6 20:59:54 10° SSE 21:05:00 80° WSW 21:10:07 10° NNW
Thor Agena Rocket 3.9 21:00:46 10° NNE 21:06:01 75° WNW 21:11:18 10° SSW
Cosmos 1455 3.6 21:03:29 10° SSW 21:07:10 42° WNW 21:10:53 10° N
SL-8 R/B 3.8 21:02:56 10° WSW 21:07:37 56° SSE 21:12:20 10° E
Cosmos 1959 Rocket 4.4 21:02:41 10° S 21:08:48 73° E 21:14:54 10° NNE
Cosmos 1727 Rocket 4.0 21:05:08 10° N 21:11:19 72° ENE 21:17:28 10° SSE
Cosmos 1980 3.9 21:07:07 10° SSW 21:12:49 80° WNW 21:18:32 10° NNE
Cosmos 1869 3.3 21:11:41 10° S 21:15:42 83° E 21:19:45 10° NNE
Cosmos 1441 Rocket 3.7 21:12:25 10° SSE 21:15:53 37° E 21:19:23 10° NNE
MetOp-A 4.3 21:10:49 11° SSE 21:15:57 59° ENE 21:21:14 10° N
Helios 1A 4.2 21:13:51 15° ESE 21:16:35 28° ENE 21:20:11 10° N
Cosmos 2297 3.8 21:12:07 10° NNW 21:17:49 82° WSW 21:23:18 11° SSE
Cosmos 2369 Rocket 3.4 21:13:05 10° NNW 21:18:06 31° NE 21:22:24 13° ESE
Terra 3.6 21:18:59 11° E 21:21:47 18° ENE 21:24:53 10° NNE
Cosmos 1707 Rocket 4.2 21:19:11 13° SSE 21:22:34 35° E 21:26:32 10° NNE
Cosmos 614 Rocket 4.0 21:17:56 10° NNW 21:23:11 68° ENE 21:27:21 16° SE
Cosmos 1933 4.3 21:21:29 17° SE 21:23:47 28° E 21:27:19 10° NNE
USA 186 4.2 21:22:44 10° WSW 21:23:50 12° W 21:24:58 10° WNW
ATLAS CENTAUR R/B 2.9 21:21:22 10° WSW 21:24:53 37° NW 21:28:37 10° NNE
NOSS 3-4 (A) 4.1 21:20:03 10° NW 21:26:57 65° SW 21:33:44 13° SSE
NOSS 3-4 (C) 4.1 21:20:09 10° NW 21:27:03 66° SW 21:33:48 13° SSE
Cosmos 1869 Rocket 3.5 21:23:06 10° N 21:27:30 76° E 21:31:16 14° SSE
Cosmos 1633 4.4 21:25:32 10° NNE 21:27:49 16° ENE 21:28:53 14° E
Cosmos 2333 Rocket 3.6 21:25:43 10° WSW 21:31:05 43° NW 21:36:29 10° NNE
Cosmos 2344 4.0 21:24:53 10° S 21:31:47 39° ESE 21:39:22 10° NE
Cosmos 2219 Rocket 3.9 21:27:38 10° WSW 21:32:50 37° NW 21:38:05 10° NNE
ERS-1 Rocket 3.1 21:29:53 17° SE 21:33:41 59° ENE 21:38:38 10° N
Cosmos 2218 Rocket 4.3 21:27:49 10° SSW 21:34:12 77° W 21:40:39 10° N
SL-08 RB Rocket 3.7 21:31:59 17° SSE 21:35:18 64° ENE 21:39:45 10° N
Meteor 1-4 Rocket 4.2 21:32:58 10° NNE 21:35:26 18° ENE 21:36:22 16° E
ATLAS 5 CENTAUR R/B 3.0 21:30:10 10° NW 21:35:36 46° NE 21:40:22 16° ESE
Cosmos 1733 Rocket 4.1 21:31:42 10° N 21:35:37 31° ENE 21:37:38 21° ESE
BREEZE-M DEB (TANK) 1.6 21:33:55 10° W 21:36:14 85° N 21:37:28 24° E
Cosmos 2237 Rocket 2.9 21:33:50 10° SW 21:39:22 57° NW 21:44:57 10° NNE
Cosmos 407 Rocket 4.2 21:34:48 10° NNW 21:39:46 51° WSW 21:44:42 10° S
Cosmos 2366 rocket 4.2 21:34:57 10° SSW 21:41:12 75° WNW 21:47:33 10° N
Cosmos 1825 4.4 21:40:53 10° NW 21:43:59 24° W 21:47:05 10° SW
Cosmos 2278 Rocket 4.3 21:40:51 10° NW 21:45:10 23° WSW 21:49:29 10° SSW
BREEZE-M DEB (TANK) 2.0 21:40:26 10° W 21:46:07 90° NW 21:47:21 29° E
Cosmos 1241 Rocket 4.5 21:40:58 10° NW 21:47:18 85° NE 21:51:37 22° SE
Cosmos 405 Rocket 2.6 21:45:42 11° S 21:49:30 83° E 21:53:30 10° NNE
Lacrosse 5 2.0 21:45:44 10° NW 21:50:48 69° NNE 21:53:59 23° ESE
SPOT 5 2.9 21:53:59 27° SE 21:56:15 56° ENE 22:00:32 10° N
CZ-2C R/B 4.4 21:55:36 18° E 21:57:35 23° ENE 22:01:22 10° N
Cosmos 1437 Rocket 2.9 21:54:11 10° N 21:58:01 55° ENE 21:59:27 34° SE
SPOT 1/Viking Rocket 3.7 21:57:25 26° SE 22:00:20 61° ENE 22:05:30 10° N
Cosmos 2098 4.2 21:59:26 36° S 22:00:36 71° E 22:04:14 10° NNE
DMSP B5D2-2 4.4 21:56:44 10° NNE 22:01:48 45° E 22:04:20 26° SSE
Cosmos 1862 4.4 22:01:24 10° NNW 22:05:15 42° W 22:08:24 14° SSW
Meteor 1-26 Rocket 4.5 22:03:34 26° SSE 22:06:21 47° E 22:11:42 10° NNE
H-2A R/B 2.2 22:04:33 19° S 22:08:06 67° WSW 22:13:02 10° NNW
SL-19 R/B 4.3 22:07:33 28° SE 22:10:33 68° ENE 22:16:13 10° NNW
USA 234 3.9 22:05:47 10° E 22:12:07 53° NNE 22:18:26 10° WNW
Meteor 1-20 Rocket 4.4 22:08:29 10° N 22:13:53 56° ENE 22:16:16 32° SE
RESURS DK-1 2.7 22:12:35 10° NNW 22:16:42 54° NE 22:17:54 39° ESE
Helios 1B rocket 2.7 22:12:56 10° NNE 22:16:56 46° E 22:17:38 42° SE
Spot 1 4.3 22:16:23 35° SE 22:18:20 68° ENE 22:22:55 10° N
Cosmos 2242 Rocket 3.7 22:17:35 40° SE 22:18:48 53° E 22:23:06 10° NNE
ARGOS 4.0 22:14:36 14° SSW 22:19:01 46° W 22:24:11 10° NNW
Cosmos 1943 Rocket 2.5 22:13:43 10° NNW 22:19:10 54° NE 22:21:35 31° ESE
USA 245 3.2 22:19:52 40° W 22:19:52 40° W 22:21:50 10° NNW
CZ-4C R/B 2.2 22:15:40 10° SSW 22:20:46 55° ESE 22:26:42 10° NE
Cosmos 1452 Rocket 3.4 22:16:13 10° SSW 22:21:29 88° ESE 22:26:46 10° NNE
Cosmos 1140 Rocket 4.5 22:20:29 10° NW 22:25:17 40° WSW 22:28:28 19° SSW
Cosmos 1934 Rocket 3.9 22:25:38 27° S 22:29:01 70° E 22:35:03 10° NNE
SL-16 R/B 3.0 22:26:29 10° SW 22:32:01 54° NW 22:37:35 10° NNE
Cosmos 1908 Rocket 3.9 22:27:50 10° N 22:32:10 48° ENE 22:32:57 43° ESE
Intercosmos 24 4.4 22:28:12 21° S 22:32:10 89° W 22:36:24 10° N
Cosmos 1850 Rocket 4.1 22:29:59 10° NNW 22:35:09 68° WSW 22:37:13 36° S
Cosmos 921 Rocket 3.0 22:35:24 53° SE 22:35:59 59° ESE 22:40:13 10° NNE
Cosmos 1862 Rocket 3.4 22:38:10 50° S 22:39:15 77° E 22:43:39 10° NNE
Landsat 7 3.8 22:39:26 41° S 22:41:05 77° WSW 22:45:52 10° NNW
Cosmos 1741 Rocket 4.4 22:39:37 10° NNW 22:44:52 59° WSW 22:46:53 36° S
Cosmos 1606 2.8 22:48:29 62° E 22:48:29 62° E 22:52:14 10° NNE
SL-8 R/B 3.5 22:45:13 10° W 22:50:01 81° S 22:51:21 48° ESE
Gblst 52 Del rocket 4.1 22:45:59 10° SW 22:51:21 56° SSE 22:56:49 10° ENE
Helios 1A 4.3 22:50:29 25° SW 22:52:04 34° W 22:55:55 10° NNW
Cosmos 1461 3.2 22:50:28 10° NW 22:55:17 72° NE 22:56:11 56° ESE
Cosmos 1174 4.3 22:56:36 50° E 22:56:36 50° E 22:59:49 10° NE
Terra 1.8 22:57:51 52° S 22:58:58 76° WSW 23:03:45 10° NNW
Cosmos 1603 3.6 22:55:26 21° SSW 22:59:18 86° WNW 23:04:58 10° NNE
Meteor 1-29 3.1 22:56:03 10° N 22:59:11 69° NNW 22:59:11 69° NNW
BREEZE M DEB (TANK) 3.4 22:46:56 10° W 22:59:41 89° N 23:01:41 35° E
Cosmos 1943 3.2 22:58:26 48° SSE 22:59:43 60° ESE 23:05:20 10° NE
ALOS 2 4.5 23:00:38 18° ENE 23:01:16 18° ENE 23:04:15 10° NNE
Cosmos 2369 Rocket 2.5 22:56:55 10° NW 23:02:32 60° WSW 23:04:12 42° SSW
Cosmos 1633 3.4 22:59:34 10° NNW 23:02:58 41° W 23:03:07 41° WSW
CZ-2C R/B 3.1 23:01:19 10° NNE 23:06:27 42° E 23:06:44 42° ESE
Cosmos 2100 Rocket 4.4 23:08:30 40° ESE 23:09:43 45° E 23:15:43 10° NNE
IGS 5A 4.0 23:09:29 47° SW 23:09:59 50° W 23:14:05 10° NNW
Meteor 1-4 Rocket 3.7 23:07:29 10° NNW 23:10:38 34° W 23:10:38 34° W
Cosmos 2263 4.2 23:05:09 10° NNW 23:10:44 69° WSW 23:12:03 51° S
Cosmos 1782 2.8 23:11:02 80° NNE 23:11:02 80° NNE 23:14:51 10° N
Meteor 1-11 Rocket 3.9 23:06:50 10° N 23:12:24 57° ENE 23:13:27 49° ESE
Lacrosse 4 Rocket 4.4 23:12:45 10° N 23:13:48 11° NNE 23:14:52 10° NE
Spot 4 3.8 23:15:21 62° ESE 23:15:49 67° ENE 23:20:36 10° N
CARTOSAT-1 4.3 23:16:13 41° WSW 23:16:50 44° W 23:20:59 10° NNW
USA 267 3.3 23:12:32 10° ENE 23:18:55 54° SE 23:20:46 42° S
Cosmos 389 Rocket 3.2 23:16:33 10° NNW 23:19:16 50° NW 23:19:16 50° NW
ATLAS 5 CENTAUR R/B 2.8 23:14:49 10° NW 23:20:30 51° SW 23:21:54 43° SSW
Meteor 1-27 Rocket 4.0 23:22:47 48° ESE 23:23:21 49° E 23:28:54 10° NNE
Cosmos 1331 Rocket 3.9 23:23:12 67° SSE 23:23:40 71° ESE 23:28:55 10° NNE
Cosmos 1602 4.0 23:20:48 10° NNW 23:24:22 69° NW 23:24:22 69° NW
Cosmos 1536 3.9 23:21:12 10° N 23:24:23 36° NE 23:24:23 36° NE
Cosmos 1271 Rocket 3.5 23:21:08 10° N 23:24:26 47° NE 23:24:26 47° NE
GEOS 3 Rocket 3.6 23:21:46 10° NE 23:27:10 83° NW 23:30:13 27° SW
Meteor 1-5 Rocket 4.3 23:25:18 10° N 23:30:36 58° ENE 23:31:16 54° ESE
Lacrosse 5 2.9 23:29:01 10° WNW 23:33:10 33° WSW 23:33:10 33° WSW
Sich 1 Rocket 3.9 23:29:29 10° NNW 23:34:01 58° W 23:34:16 57° WSW
Okean 1-7 3.1 23:34:49 68° NNE 23:34:49 68° NNE 23:38:38 10° NNE
CZ-2C R/B 3.2 23:36:39 52° WSW 23:37:06 54° W 23:41:55 10° NNW
Cosmos 1782 Rocket 3.8 23:34:28 10° NNW 23:38:54 63° W 23:38:54 63° W
Cosmos 1486 Rocket 3.8 23:34:58 10° NNW 23:40:17 89° WSW 23:40:43 76° SSE
Cosmos 1900 4.2 23:35:45 10° NW 23:40:41 76° NE 23:40:52 74° ENE
Cosmos 2173 Rocket 4.0 23:41:15 58° SSE 23:42:21 69° E 23:48:40 10° NNE
Okean 2 Rocket 3.1 23:40:21 10° N 23:44:28 76° NNW 23:44:28 76° NNW
Cosmos 2344 4.2 23:38:13 10° WSW 23:45:48 60° NW 23:54:54 10° NE
Cosmos 1110 Rocket 4.3 23:51:57 47° WSW 23:53:17 64° WNW 23:58:36 10° NNE
Cosmos 1503 Rocket 4.0 23:48:36 10° NNW 23:53:49 68° ENE 23:54:07 66° E
RESURS DK-1 4.5 23:51:27 10° WNW 23:53:48 18° W 23:53:48 18° W
